GW2021 Weather Reports


time (UTC)temp
F
wind
direction
speed
knots
gust
knots
rain 1hr
in
rain 24hr
in
rain mn
in
humidity
%
barometer
mb
20260510033040 52 157 0.0 0.0 0.00 0.00 0.00 81 1010.7
20260510032041 52 157 0.0 0.0 0.00 0.00 0.00 80 1010.7
20260510031040 53 157 0.0 0.0 0.00 0.00 0.00 80 1010.8
20260510030040 53 157 0.0 0.0 0.00 0.00 0.00 80 1010.9
20260510025040 53 157 0.0 0.0 0.00 0.00 0.00 80 1010.8
20260510023039 54 157 0.0 0.0 0.00 0.00 0.00 79 1010.6
20260510022042 54 157 0.0 0.0 0.00 0.00 0.00 79 1010.4
20260510020142 54 157 0.0 0.0 0.00 0.00 0.00 79 1010.2
20260510014141 55 157 0.0 0.0 0.00 0.00 0.00 79 1010.1
20260510013140 55 157 0.0 0.0 0.00 0.00 0.00 77 1010.0
20260510012239 55 157 0.0 0.0 0.00 0.00 0.00 76 1010.1
20260510011339 56 157 0.0 0.0 0.00 0.00 0.00 76 1009.8
20260510010342 56 157 0.0 0.0 0.00 0.00 0.00 76 1009.8
20260510005341 57 157 0.0 0.0 0.00 0.00 0.00 75 1009.6
20260510004438 57 157 0.0 0.0 0.00 0.00 0.00 75 1009.6
20260510003440 58 157 0.0 0.0 0.00 0.00 0.00 75 1009.5
20260510002439 59 157 0.0 0.0 0.00 0.00 0.00 74 1009.4
20260510001440 59 157 0.0 0.0 0.00 0.00 0.00 74 1009.2
20260510000540 60 157 0.0 0.0 0.00 0.00 0.00 73 1009.2
20260509235541 60 157 0.0 0.0 0.00 0.00 0.00 72 1009.1
20260509234639 61 157 0.0 0.0 0.00 0.00 0.00 71 1009.1
20260509233639 61 157 0.0 0.0 0.00 0.00 0.00 69 1009.0
20260509232640 61 157 0.0 0.0 0.00 0.00 0.00 68 1009.1
20260509231639 62 157 0.0 0.0 0.00 0.00 0.00 67 1008.9
20260509230640 62 157 0.0 0.0 0.00 0.00 0.00 67 1008.9
20260509225638 63 157 0.0 0.0 0.00 0.00 0.00 66 1009.0
20260509224640 63 157 0.0 0.0 0.00 0.00 0.00 66 1009.1
20260509223640 63 157 0.0 0.0 0.00 0.00 0.00 68 1009.2
20260509222639 62 157 0.0 0.0 0.00 0.00 0.00 66 1009.1
20260509221639 62 157 0.0 0.0 0.00 0.00 0.00 67 1009.2
20260509215641 63 157 0.0 0.0 0.00 0.00 0.00 64 1009.1
20260509214739 64 157 0.0 0.0 0.00 0.00 0.00 64 1009.0
20260509212839 64 157 0.0 0.0 0.00 0.00 0.00 68 1009.4
20260509212738 64 157 0.0 0.0 0.00 0.00 0.00 68 1009.4
20260509211739 63 157 0.0 0.0 0.00 0.00 0.00 68 1009.6
20260509210738 63 157 0.0 0.0 0.00 0.00 0.00 64 1009.7
20260509204742 63 157 0.0 0.0 0.00 0.00 0.00 64 1009.8
20260509202841 63 157 0.0 0.0 0.00 0.00 0.00 67 1009.5
20260509201841 63 157 0.0 0.0 0.00 0.00 0.00 66 1009.5
20260509195940 63 157 0.0 0.0 0.00 0.00 0.00 66 1009.7
20260509194941 63 157 0.0 0.0 0.00 0.00 0.00 68 1009.7
20260509193940 63 157 0.0 0.0 0.00 0.00 0.00 66 1009.8
20260509192940 63 157 0.0 0.0 0.00 0.00 0.00 67 1009.8
20260509191941 62 157 0.0 0.0 0.00 0.00 0.00 68 1010.1
20260509191039 62 157 0.0 0.0 0.00 0.00 0.00 69 1010.1
20260509190139 62 157 0.0 0.0 0.00 0.00 0.00 70 1010.1
20260509185139 62 157 0.0 0.0 0.00 0.00 0.00 69 1010.4
20260509184140 62 157 0.0 0.0 0.00 0.00 0.00 71 1010.4
20260509183140 62 157 0.0 0.0 0.00 0.00 0.00 73 1010.7
20260509182239 62 157 0.0 0.0 0.00 0.00 0.00 74 1010.7
20260509180339 60 157 0.0 0.0 0.00 0.00 0.00 79 1011.1
20260509175339 60 157 0.0 0.0 0.00 0.00 0.00 81 1011.2
20260509174339 59 157 0.0 0.0 0.00 0.00 0.00 81 1011.2
20260509173341 58 157 0.0 0.0 0.00 0.00 0.00 82 1011.5
20260509172341 58 157 0.0 0.0 0.00 0.00 0.00 83 1011.4
20260509170538 58 157 0.0 0.0 0.00 0.00 0.00 82 1011.2
20260509164538 58 157 0.0 0.0 0.00 0.00 0.00 83 1011.4
20260509163539 58 157 0.0 0.0 0.00 0.00 0.00 83 1011.4
20260509162542 58 157 0.0 0.0 0.00 0.00 0.00 83 1011.8
20260509161540 58 157 0.0 0.0 0.00 0.00 0.00 83 1011.9
20260509160639 58 157 0.0 0.0 0.00 0.00 0.00 83 1011.9
20260509155640 57 157 0.0 0.0 0.00 0.00 0.00 83 1011.8
20260509154738 56 157 0.0 0.0 0.00 0.00 0.00 81 1011.8
20260509152740 54 157 0.0 0.0 0.00 0.00 0.00 80 1011.4
20260509151740 54 157 0.0 0.0 0.00 0.00 0.00 81 1011.7
20260509145841 56 157 0.0 0.0 0.00 0.00 0.00 78 1011.8
20260509144839 57 157 0.0 0.0 0.00 0.00 0.00 76 1012.0
20260509143840 57 157 0.0 0.0 0.00 0.00 0.00 72 1012.0
20260509142840 57 157 0.0 0.0 0.00 0.00 0.00 69 1012.0
20260509141840 58 157 0.0 0.0 0.00 0.00 0.00 66 1011.9
20260509140841 58 157 0.0 0.0 0.00 0.00 0.00 65 1012.1
20260509135939 58 157 0.0 0.0 0.00 0.00 0.00 65 1011.9
20260509134939 58 157 0.0 0.0 0.00 0.00 0.00 65 1011.8
20260509133939 57 157 0.0 0.0 0.00 0.00 0.00 64 1011.5
20260509132940 56 157 0.0 0.0 0.00 0.00 0.00 69 1011.6
20260509132039 55 157 0.0 0.0 0.00 0.00 0.00 71 1011.7
20260509131041 55 157 0.0 0.0 0.00 0.00 0.00 71 1011.2
20260509130139 54 157 0.0 0.0 0.00 0.00 0.00 71 1011.4
20260509125141 54 157 0.0 0.0 0.00 0.00 0.00 72 1011.1
20260509124138 54 157 0.0 0.0 0.00 0.00 0.00 71 1011.7
20260509123141 54 157 0.0 0.0 0.00 0.00 0.00 73 1010.9
20260509121141 53 157 0.0 0.0 0.00 0.00 0.00 73 1011.2
20260509120141 53 157 0.0 0.0 0.00 0.00 0.00 73 1011.2
20260509115140 53 157 0.0 0.0 0.00 0.00 0.00 74 1011.1
20260509114140 53 157 0.0 0.0 0.00 0.00 0.00 74 1011.0
20260509113139 53 157 0.0 0.0 0.00 0.00 0.00 73 1011.3
20260509110239 53 157 0.0 0.0 0.00 0.00 0.00 72 1010.9
20260509105240 52 157 0.0 0.0 0.00 0.00 0.00 72 1010.7
20260509104339 52 157 0.0 0.0 0.00 0.00 0.00 73 1010.8
20260509103341 52 157 0.0 0.0 0.00 0.00 0.00 73 1010.6
20260509102339 52 157 0.0 0.0 0.00 0.00 0.00 72 1010.6
20260509101340 52 157 0.0 0.0 0.00 0.00 0.00 72 1010.4
20260509095338 52 157 0.0 0.0 0.00 0.00 0.00 72 1010.5
20260509094338 52 157 0.0 0.0 0.00 0.00 0.00 73 1010.6
20260509093340 52 157 0.0 0.0 0.00 0.00 0.00 72 1010.5
20260509092438 52 157 0.0 0.0 0.00 0.00 0.00 72 1010.6
20260509090540 53 157 0.0 0.0 0.00 0.00 0.00 70 1010.6
20260509085639 53 157 0.0 0.0 0.00 0.00 0.00 69 1010.8
20260509084641 53 157 0.0 0.0 0.00 0.00 0.00 69 1010.9
20260509082737 53 157 0.0 0.0 0.00 0.00 0.00 71 1010.7
20260509081738 53 157 0.0 0.0 0.00 0.00 0.00 70 1011.0
20260509080739 53 157 0.0 0.0 0.00 0.00 0.00 70 1011.0
20260509075837 53 157 0.0 0.0 0.00 0.00 0.00 68 1011.0
20260509074838 53 157 0.0 0.0 0.00 0.00 0.00 67 1011.0
20260509072854 54 157 0.0 0.0 0.00 0.00 0.00 65 1011.0
20260509071939 54 157 0.0 0.0 0.00 0.00 0.00 64 1010.9
20260509064939 54 157 0.0 0.0 0.00 0.00 0.00 64 1011.0
20260509063941 54 157 0.0 0.0 0.00 0.00 0.00 64 1011.0
20260509062941 54 157 0.0 0.0 0.00 0.00 0.00 63 1011.1
20260509062038 54 157 0.0 0.0 0.00 0.00 0.00 62 1011.2
20260509061038 55 157 0.0 0.0 0.00 0.00 0.00 61 1011.3
20260509060054 55 157 0.0 0.0 0.00 0.00 0.00 61 1011.0
20260509055137 54 157 0.0 0.0 0.00 0.00 0.00 61 1011.0
20260509054039 54 157 0.0 0.0 0.00 0.00 0.00 61 1011.2
20260509053039 53 157 0.0 0.0 0.00 0.00 0.00 64 1011.4
20260509052038 53 157 0.0 0.0 0.00 0.00 0.00 67 1011.6
20260509051041 53 157 0.0 0.0 0.00 0.00 0.00 66 1011.9
20260509050038 53 157 0.0 0.0 0.00 0.00 0.00 65 1011.8
20260509045039 53 157 0.0 0.0 0.00 0.00 0.00 65 1011.9
20260509044038 53 157 0.0 0.0 0.00 0.00 0.00 65 1011.9
20260509043039 54 157 0.0 0.0 0.00 0.00 0.00 65 1011.8
20260509042037 54 157 0.0 0.0 0.00 0.00 0.00 64 1011.9
20260509041039 55 157 0.0 0.0 0.00 0.00 0.00 64 1011.9
20260509040137 55 157 0.0 0.0 0.00 0.00 0.00 64 1012.0
20260509035122 56 157 0.0 0.0 0.00 0.00 0.00 62 1012.1
20260509034121 56 157 0.0 0.0 0.00 0.00 0.00 62 1012.2